Regional Weather Roundup
Issued by NWS Nashville, TN

Home | Current Version | Previous Version | Text Only | Print | Product List | Glossary On
Versions: 1 2 3 4 5 6 7 8 9 10 11 12 13 14 15 16 17 18 19 20 21 22 23 24 25 26 27 28 29 30 31 32 33 34 35 36 37 38 39 40 41 42 43 44 45 46 47 48 49 50
000
ASUS44 KOHX 230715
RWROHX
MIDDLE TENNESSEE HOURLY WEATHER ROUNDUP
NATIONAL WEATHER SERVICE NASHVILLE TN
200 AM CDT WED APR 23 2014

NOTE: "FAIR" INDICATES FEW OR NO CLOUDS BELOW 12,000 FEET WITH
NO SIGNIFICANT WEATHER AND/OR OBSTRUCTIONS TO VISIBILITY.

* THESE REPORTS ARE NOT UNDER NWS QUALITY CONTROL AND MAY NOT
  REPORT WEATHER SUCH AS PRECIPITATION AND FOG.


TNZ005>011-023>034-057-059-062>066-078-080-230800
...NORTHERN MIDDLE TENNESSEE...

CITY           SKY/WX    TMP DP  RH WIND       PRES   REMARKS
BAXTER*          N/A     54  39  58 CALM        N/A
BRENTWOOD*       N/A     45  37  76 CALM        N/A
CASTALIAN SPRG   N/A     46  43  87 CALM        N/A
CLARKSVILLE    CLEAR     47  39  74 N3        29.97S
COLUMBIA       CLEAR     48  46  93 CALM      29.94F
CROSSVILLE     CLEAR     52  35  52 N6        29.94S
GALLATIN         N/A     51  39  63 CALM      29.96F
DICKSON        CLEAR     52  36  54 N5        29.96F
FAIRFIELD GLAD   N/A     50  36  57 CALM        N/A
GLADEVILLE*      N/A     52  41  66 CALM        N/A
GOODLETTSVILLE   N/A     55  41  58 CALM        N/A
JOELTON*         N/A     48  41  76 CALM        N/A
KINGSTON SPGS*   N/A     50  41  71 CALM        N/A
LAFAYETTE*       N/A     54  36  50 N5          N/A
LIVINGSTON     CLEAR     51  35  54 NE6       29.95S
MONTEREY         N/A     45  41  87 CALM        N/A
MOUNT JULIET*    N/A     52  41  66 CALM        N/A
NASHVILLE      CLEAR     55  39  54 N5        29.96S
OLD HICKORY*     N/A     57  45  62 CALM        N/A
PEGRAM*          N/A    N/A N/A N/A CALM        N/A
PORTLAND       CLEAR     46  39  76 CALM      29.95S
SMYRNA         CLEAR     51  41  69 CALM      29.96S
SPARTA         CLEAR     46  39  76 CALM      29.93F
SPRINGFIELD*     N/A     48  41  76 MISG        N/A
WHITE BLUFF*     N/A     52  37  58 W1          N/A
$$
TNZ056-058-060-061-075>077-079-093>097-230800
...SOUTHERN MIDDLE TENNESSEE...

CITY           SKY/WX    TMP DP  RH WIND       PRES   REMARKS
BELLEVUE*        N/A     52  43  71 CALM        N/A
CULLEOKA*        N/A     48  43  81 CALM        N/A
EAGLEVILLE*      N/A    N/A N/A N/A CALM        N/A
FAIRVIEW*        N/A     45  41  87 CALM        N/A
FAYETTEVILLE   CLEAR     54  40  59 N12       29.94S
HOHENWALD*       N/A     52  43  71 CALM        N/A
LEWISBURG      CLEAR     45  43  93 CALM      29.95F
MANCHESTER*      N/A     48  45  87 CALM        N/A
MCMINNVILLE      N/A     52  39  61 N6        29.94F
MOUNT PLEASANT   N/A     54  45  71 CALM        N/A
MURFREESBORO   CLEAR     50  43  77 CALM      29.95S
SHELBYVILLE    CLEAR     52  45  76 CALM      29.96S
SPRING HILL*     N/A     48  41  76 CALM        N/A
TULLAHOMA      CLEAR     52  39  62 N6        29.95S
WINCHESTER     CLEAR     52  41  66 CALM      29.95R
$$


...KEY TO REMARKS...
VSB - VISIBILITY IN MILES
WCI - WIND CHILL INDEX
HX  - HEAT INDEX




USA.gov is the U.S. government's official web portal to all federal, state and local government web resources and services.